Theta_e
319 320 321 321 321 321 320 319 317 314 314 314 314 315 315 315 314 304 298 304 309 315 314 306 302 305 305 303 303 302 291 289 291 292 292 292 292 292 293 291 291 293 293 299 303
319 320 320 321 321 320 321 320 318 316 314 313 313 314 314 313 303 297 306 312 313 313 305 300 298 302 297 299 299 295 290 290 290 291 291 292 292 292 289 290 291 291 296 300 302
319 319 320 320 320 320 321 320 318 317 314 313 312 313 314 308 299 295 309 311 312 310 304 301 300 299 296 297 295 294 291 291 291 292 292 292 290 292 289 289 291 291 293 297 299
319 319 320 320 320 321 321 319 318 316 314 312 312 314 314 304 290 299 309 309 310 305 302 300 297 294 293 292 295 289 292 291 292 293 292 290 292 289 290 289 293 293 296 297 297
319 319 319 320 320 321 321 319 317 315 314 311 313 315 305 297 293 302 311 308 305 304 300 298 294 294 291 292 292 290 290 292 292 292 291 293 289 289 290 293 293 294 295 295 296
319 319 319 319 320 320 320 317 316 314 313 311 313 310 299 293 300 303 303 304 303 302 300 299 295 296 293 291 290 292 292 291 292 292 293 290 289 289 291 293 294 294 293 294 296
319 319 319 319 319 319 319 316 314 312 311 311 312 302 298 292 301 302 304 303 303 302 299 300 299 297 295 291 294 292 288 290 290 292 291 291 287 287 291 293 292 293 294 295 295
319 319 319 319 319 318 316 314 312 310 311 311 310 302 292 300 301 301 303 303 304 305 303 302 301 298 295 294 291 288 287 283 289 290 290 288 282 289 290 289 290 291 293 294 295
318 318 319 319 318 316 314 312 310 309 307 308 301 300 291 300 297 300 302 299 302 303 303 301 299 295 294 289 285 287 284 281 284 290 288 286 283 288 289 289 288 290 290 292 294
318 318 318 317 315 315 313 310 311 308 307 302 301 298 294 291 297 298 302 301 299 299 299 298 294 290 288 289 283 281 282 283 281 285 286 284 284 288 290 289 288 288 289 291 293
317 315 315 314 315 312 312 310 304 303 299 292 291 291 292 296 300 299 300 298 298 296 289 292 291 285 284 285 285 284 281 282 286 286 283 283 284 287 289 288 287 287 288 289 290
315 314 313 313 312 312 310 300 295 297 295 293 292 292 293 295 292 296 300 295 289 288 292 292 286 287 289 288 285 283 281 280 285 285 283 282 282 286 288 287 286 286 287 289 289
313 313 312 312 313 308 300 297 302 301 294 290 291 290 291 295 292 292 296 294 287 286 286 286 287 289 287 285 283 283 281 279 278 283 283 280 279 283 285 287 288 288 289 290 290
311 311 311 312 309 307 298 301 302 302 286 289 289 290 293 295 292 296 297 293 290 283 285 285 288 287 284 282 284 280 284 282 280 276 272 279 269 281 282 284 286 287 286 287 288
310 309 309 311 307 301 300 302 302 299 280 289 289 295 295 292 292 292 297 294 288 284 286 284 284 282 282 283 285 280 284 279 278 273 272 275 269 280 281 281 283 285 287 287 288
308 307 309 309 307 302 304 303 299 286 279 283 289 289 290 293 293 294 293 295 292 287 286 283 288 285 284 285 284 284 279 279 276 273 266 269 270 276 278 281 283 286 286 287 286
307 306 306 306 300 304 305 300 286 282 287 283 283 288 286 286 289 289 289 287 283 279 281 281 281 284 286 280 283 280 274 270 270 268 270 265 269 275 282 283 284 284 284 285 286
307 309 305 303 305 305 304 288 280 282 281 289 287 288 284 285 284 286 285 283 285 282 279 276 275 279 284 280 278 278 274 270 265 268 269 266 267 278 280 282 283 285 285 285 284
309 309 307 303 305 305 294 283 283 283 288 284 288 282 283 284 283 284 283 283 284 281 278 276 276 282 282 283 280 278 270 275 268 263 265 272 276 282 280 277 281 282 283 283 284
308 305 302 304 305 303 285 284 282 290 290 287 283 284 278 282 282 282 283 284 283 284 282 279 272 278 281 282 280 277 278 270 270 263 263 270 269 274 274 272 275 280 278 281 283
306 294 302 305 305 290 283 283 282 291 292 285 284 282 283 280 281 281 282 283 285 283 283 280 275 274 278 274 273 272 271 271 272 273 266 265 272 278 274 274 273 276 280 278 278
302 285 302 305 287 285 283 283 288 288 291 290 287 285 282 282 281 278 282 283 286 283 279 281 280 271 274 280 281 278 275 277 270 267 269 270 269 278 276 275 273 274 279 279 279
291 292 303 302 283 283 285 283 286 286 285 284 283 287 287 278 276 283 283 286 286 283 281 281 274 268 273 275 277 273 278 278 274 275 268 267 271 276 273 272 273 275 279 281 280
295 284 287 290 292 285 281 282 281 288 287 286 285 286 284 277 282 277 281 284 285 283 287 284 279 272 271 272 273 271 275 277 274 267 270 274 275 277 277 275 278 279 279 280 278
292 285 288 283 285 286 285 284 281 279 286 287 282 283 280 274 279 275 282 283 285 287 283 282 274 276 277 277 276 275 274 275 272 274 270 276 275 280 282 279 279 280 276 277 278
289 287 288 285 285 283 284 282 281 282 284 282 279 283 284 276 281 279 282 282 281 283 281 283 275 272 268 278 278 276 278 277 277 276 275 276 276 284 285 284 284 283 277 277 278
294 294 289 286 284 282 282 283 282 284 285 287 285 283 282 283 286 286 287 286 285 282 281 280 275 269 272 275 270 269 274 278 278 277 278 274 279 283 281 276 278 278 276 279 279
Wind_Speed
13 14 14 15 15 15 14 12 10 10 9 9 8 9 10 11 11 3 7 8 9 16 14 9 4 1 4 2 3 1 3 4 4 2 6 2 4 2 3 1 1 4 5 3 15
13 14 15 15 15 16 15 13 12 9 9 9 9 9 9 8 4 11 7 12 13 12 7 5 1 1 2 2 1 1 2 5 7 7 6 6 4 7 1 5 4 5 8 7 12
12 14 15 15 16 16 15 15 13 10 8 9 9 9 8 5 3 5 14 14 13 10 4 5 3 4 2 1 2 1 2 5 8 8 9 4 3 2 3 6 6 9 13 9 7
12 13 14 16 16 17 15 15 14 10 7 8 8 8 6 4 1 6 14 13 11 6 5 2 3 2 2 3 2 2 3 4 4 5 5 2 7 4 7 3 3 7 7 12 10
12 12 13 14 15 16 16 15 14 10 6 7 7 8 5 3 4 8 10 9 4 3 5 3 4 2 2 3 2 2 3 2 3 1 3 5 6 6 9 9 4 4 3 10 9
11 11 12 13 16 17 17 16 15 8 5 7 7 6 4 0 3 8 6 5 9 5 6 5 5 2 5 3 2 2 1 2 2 1 2 4 5 2 5 4 8 8 6 5 9
11 11 11 13 15 17 17 17 13 6 4 6 7 4 6 5 2 7 4 2 4 6 3 3 4 3 2 3 1 2 2 4 4 2 2 3 7 11 9 5 4 7 10 8 7
12 12 11 13 15 17 17 17 8 4 4 5 6 4 4 2 6 8 9 1 3 2 3 2 6 5 3 3 3 2 1 2 2 1 2 3 7 4 5 1 6 8 7 8 8
11 12 12 13 15 16 17 12 5 5 4 5 3 3 4 2 3 7 5 5 5 2 1 2 1 2 2 2 1 5 1 3 4 2 3 3 7 2 4 4 7 7 6 6 7
10 11 12 13 15 16 17 3 4 5 6 3 2 2 3 4 4 6 4 5 3 4 3 2 1 1 1 3 0 2 3 1 4 2 2 7 15 17 14 12 11 9 8 7 8
10 11 12 13 16 16 10 3 1 2 9 4 3 2 3 8 2 3 4 6 3 4 2 3 1 3 6 4 3 4 3 5 5 3 2 7 13 18 13 8 8 9 9 9 6
9 11 13 15 11 16 6 6 3 1 0 3 1 1 1 3 3 8 10 2 6 3 5 4 3 5 3 3 2 3 1 4 6 3 2 8 16 23 18 9 2 2 6 7 6
10 11 13 14 7 3 9 5 3 2 3 3 2 3 3 5 3 6 8 1 4 4 3 3 4 2 3 4 3 3 1 3 3 10 6 8 10 3 3 6 6 4 8 7 7
9 11 12 16 1 1 4 3 2 3 5 5 2 2 2 4 0 3 4 3 3 2 3 3 3 2 4 1 3 1 6 4 4 5 3 4 7 8 5 6 5 6 6 7 7
8 11 9 11 4 4 3 4 3 3 1 1 2 1 3 3 4 2 1 4 4 1 2 1 2 1 2 3 3 2 4 2 2 1 5 1 3 9 4 6 7 8 7 8 9
9 12 9 2 4 2 3 3 3 5 0 3 3 3 4 2 1 2 1 2 2 2 3 2 0 4 4 4 3 1 2 3 1 1 2 3 3 7 1 3 7 7 8 8 7
5 9 6 3 2 4 3 3 5 3 2 4 3 3 1 3 4 4 3 2 2 4 3 3 2 3 3 2 3 3 2 2 2 1 5 3 1 12 3 3 8 8 9 8 7
4 7 3 4 3 4 2 5 2 1 2 2 2 4 3 5 2 5 4 1 3 2 2 2 5 1 3 3 2 1 2 3 4 3 4 3 7 8 1 4 4 6 8 8 5
7 3 2 4 4 3 4 4 3 2 2 4 2 4 4 1 1 3 3 2 4 3 3 2 2 3 5 3 2 2 1 1 1 1 3 6 7 7 3 4 3 6 7 7 2
3 1 3 6 4 0 6 2 2 2 3 2 0 3 2 3 3 3 3 3 3 3 2 2 4 2 2 1 3 1 1 3 2 2 5 6 4 7 4 4 3 7 6 4 2
2 3 3 5 3 6 3 2 3 4 2 2 2 0 3 1 2 2 4 2 3 3 2 3 3 2 1 6 6 2 2 2 1 3 5 3 7 5 8 6 9 7 6 7 6
2 3 4 5 4 2 2 2 4 2 1 1 2 1 4 1 2 3 3 0 3 5 3 3 1 4 7 5 5 2 2 5 4 6 4 2 10 4 6 7 5 7 8 6 6
3 2 3 3 2 2 1 3 3 2 2 1 2 3 3 2 2 5 4 4 4 5 2 4 3 3 4 0 2 3 5 4 2 1 7 2 8 1 2 4 7 8 9 8 6
1 2 4 5 1 4 2 2 3 4 4 3 2 1 2 3 4 5 2 3 4 3 1 1 4 8 6 5 5 4 6 9 7 3 4 18 17 9 8 8 8 8 8 7 6
4 1 1 2 1 1 4 5 2 3 3 1 2 5 5 3 3 5 5 8 7 7 4 4 7 7 13 12 8 8 9 13 12 17 10 22 19 15 13 7 7 8 5 6 9
1 1 2 3 2 2 4 2 4 4 4 4 4 2 6 7 7 7 7 3 6 6 6 5 6 2 5 11 15 19 18 18 21 18 23 25 33 25 18 12 15 13 7 8 8
1 1 1 0 2 2 4 4 1 2 6 8 3 4 7 8 4 7 9 10 10 5 7 5 4 2 19 6 4 11 20 24 20 16 24 22 32 15 16 8 10 9 7 9 9
Wind_Direction
19 13 10 6 3 3 358 355 346 335 335 334 337 345 340 328 299 323 40 330 319 319 320 280 269 321 266 111 310 304 288 277 296 180 81 87 171 27 13 48 327 101 49 26 133
12 10 6 3 2 360 354 351 342 330 326 328 329 336 340 330 280 63 352 338 330 331 318 332 131 210 110 61 356 261 263 10 10 13 36 105 327 144 223 192 169 121 84 100 126
4 5 2 358 356 355 351 347 342 326 318 327 325 326 333 306 257 34 355 344 339 318 265 305 321 295 150 277 50 28 306 351 44 23 357 62 318 66 281 263 192 192 155 157 151
354 356 355 355 350 346 347 345 339 331 315 325 327 326 322 255 358 16 352 344 327 317 294 262 241 230 196 172 63 259 45 355 20 25 351 9 349 298 221 252 54 10 120 155 170
341 347 347 343 341 341 341 340 335 327 306 316 326 330 282 180 44 340 347 339 316 316 4 331 261 342 192 87 201 281 92 42 64 34 323 339 274 263 284 263 121 109 359 163 172
330 337 336 332 335 337 337 335 330 314 299 315 319 338 252 49 308 357 358 355 9 4 36 354 15 352 74 56 353 37 37 83 138 90 278 318 286 30 228 220 224 159 194 240 178
322 325 324 326 334 333 335 332 327 307 289 307 313 293 63 66 13 353 21 8 346 358 84 30 326 312 173 128 223 133 239 184 194 77 8 331 262 232 240 166 240 227 187 205 215
322 320 324 327 326 330 333 330 322 313 289 292 300 274 64 73 332 10 358 147 42 40 54 348 336 96 9 136 167 254 192 272 89 330 101 327 274 138 60 155 230 245 231 189 215
328 328 329 332 327 328 329 329 303 285 274 273 250 266 88 165 358 351 7 343 294 148 147 244 286 88 199 236 139 32 250 297 150 49 333 185 274 201 144 217 246 249 232 204 207
340 338 337 335 332 329 324 288 299 260 241 220 3 175 52 1 340 312 5 304 316 287 210 217 198 152 253 35 11 335 314 278 260 130 251 261 260 271 268 218 229 222 243 226 198
353 344 340 341 338 328 325 210 280 154 44 41 351 324 9 329 241 40 343 315 228 239 31 68 67 49 49 46 15 342 334 300 312 110 331 261 282 282 275 276 263 222 215 210 208
347 345 344 341 349 342 354 59 61 322 140 72 68 145 336 325 284 39 335 316 70 64 349 22 75 56 59 16 351 309 63 287 293 74 307 289 290 274 282 258 285 40 76 82 81
355 343 337 336 330 23 72 61 339 296 263 85 52 2 346 319 28 360 355 348 88 58 41 61 65 33 10 31 339 269 224 336 318 339 258 300 284 230 82 106 92 36 68 109 131
3 344 335 325 346 348 56 12 326 297 80 336 65 68 288 300 95 349 12 336 92 134 14 63 59 34 35 315 50 315 13 29 7 20 284 50 283 313 156 165 156 155 163 133 116
6 349 335 352 320 53 2 331 318 250 360 323 33 336 275 352 311 106 319 260 33 70 83 20 35 38 66 48 14 51 4 12 67 310 24 173 71 263 130 156 163 160 165 133 150
18 0 320 296 88 34 330 307 244 43 339 331 302 338 13 331 85 279 211 136 348 156 71 77 31 6 34 81 31 60 343 230 102 168 344 240 124 285 89 120 134 137 143 141 140
12 22 28 357 40 331 301 229 35 106 352 336 332 9 348 322 342 8 341 276 23 32 352 175 90 88 337 262 137 21 5 312 327 348 230 266 294 245 284 50 151 160 148 132 149
16 334 42 59 349 325 260 49 83 217 268 318 263 282 6 9 59 330 305 272 101 311 285 1 311 63 348 38 356 146 87 146 247 322 290 325 242 255 14 37 20 69 122 132 177
314 168 105 18 344 304 58 65 187 205 354 348 290 55 334 335 7 342 264 359 58 60 163 320 254 116 25 7 55 170 217 18 68 57 39 232 281 304 22 344 226 152 160 197 153
304 332 62 332 325 47 71 144 175 344 330 258 51 322 314 313 327 61 310 57 102 49 101 43 306 8 124 206 54 154 10 42 325 316 277 282 260 238 268 270 256 193 214 190 232
285 48 29 335 324 51 86 203 259 253 293 26 349 182 287 236 309 311 293 97 92 133 99 120 116 257 117 203 178 122 249 266 50 178 207 287 267 223 196 203 207 213 207 245 266
356 46 360 323 43 52 99 212 295 256 138 314 315 259 208 63 248 251 284 287 116 151 188 171 209 261 221 71 20 324 251 178 150 263 245 176 270 219 215 190 182 231 251 255 243
62 6 357 319 100 89 42 299 217 244 252 194 246 271 58 190 269 244 221 95 198 187 220 179 251 316 310 152 105 219 200 227 75 285 221 177 261 17 323 294 248 236 265 270 262
79 350 348 49 326 136 169 263 293 314 277 183 281 54 244 196 237 267 280 174 186 224 201 190 238 205 220 184 131 200 205 205 171 197 229 231 266 271 272 232 253 250 247 271 268
10 23 96 52 23 20 357 159 202 300 242 191 295 223 180 259 249 229 244 253 197 215 201 213 231 239 252 262 247 217 213 204 204 219 212 262 253 249 245 226 234 241 252 279 283
52 81 164 144 275 217 175 236 215 208 198 242 219 249 237 208 222 270 286 266 226 194 186 188 261 188 261 257 256 255 239 231 229 225 240 255 265 259 274 273 271 270 248 257 271
268 150 20 128 181 186 216 208 227 70 257 262 269 322 279 277 324 312 297 284 263 217 205 214 205 163 268 231 306 266 227 229 235 219 228 240 248 280 265 221 233 247 209 237 250